Regional Weather Roundup
Issued by NWS

Home | Current Version | Previous Version | Text Only | Print | Product List | Glossary Off
Versions: 1 2 3 4 5 6 7 8 9 10 11 12 13 14 15 16 17 18 19 20 21 22 23 24 25 26 27 28 29 30 31 32 33 34 35 36 37 38 39 40 41 42 43 44 45 46 47 48 49 50

000
ASUS43 KOAX 220002
RWRNE

WEATHER ROUNDUP FOR NEBRASKA
NATIONAL WEATHER SERVICE OMAHA NE
700 PM CDT SAT APR 21 2018

NOTES: SATELLITE DATA IS BEING USED TO AUGMENT CLOUD COVER ABOVE
       12000 FEET.
       "FAIR" INDICATES FEW OR NO CLOUDS BELOW 12,000 FEET WITH NO
       SIGNIFICANT WEATHER AND/OR OBSTRUCTIONS TO VISIBILITY.


NEZ001>004-019>022-054>056-220100-
NEBRASKA PANHANDLE

CITY           SKY/WX    TMP DP  RH WIND       PRES   REMARKS
SCOTTSBLUFF    MOSUNNY   46  39  76 E7        30.17S
6HR MIN TEMP:  38; 6HR MAX TEMP:  46; 6HR PCP:  0.01;

ALLIANCE       PTSUNNY   42  37  82 S10       30.18S
6HR MIN TEMP:  38; 6HR MAX TEMP:  44; 6HR PCP:  0.01;

CHADRON        CLOUDY    49  37  63 S15       30.16F
6HR MIN TEMP:  37; 6HR MAX TEMP:  50; 6HR PCP:  0.02;

GORDON         CLOUDY    44  38  79 SE9       30.18F
6HR MIN TEMP:  41; 6HR MAX TEMP:  44;

KIMBALL        CLOUDY    43  36  77 S6        30.17S
SIDNEY         CLOUDY    42  33  70 CALM      30.19S
6HR MIN TEMP:  36; 6HR MAX TEMP:  42; 6HR PCP: TRACE;

$$

NEZ057>060-069>072-079>082-220100-
SOUTHWEST NEBRASKA

CITY           SKY/WX    TMP DP  RH WIND       PRES   REMARKS
NORTH PLATTE   CLOUDY    46  37  71 E8        30.22R
6HR MIN TEMP:  43; 6HR MAX TEMP:  47;

IMPERIAL       CLOUDY    42  39  89 N3        30.22S
6HR MIN TEMP:  40; 6HR MAX TEMP:  43;

LEXINGTON      CLOUDY    44  40  84 E8        30.23S
MCCOOK         CLOUDY    45  39  79 E7        30.22R
6HR MIN TEMP:  43; 6HR MAX TEMP:  48;

OGALLALA       CLOUDY    42  39  88 E3        30.22S
$$

NEZ005>010-023>029-035>040-094-220100-
NORTH CENTRAL NEBRASKA

CITY           SKY/WX    TMP DP  RH WIND       PRES   REMARKS
VALENTINE      CLOUDY    49  36  61 SE10      30.23S
6HR MIN TEMP:  43; 6HR MAX TEMP:  51; 6HR PCP: TRACE;

AINSWORTH      CLOUDY    46  38  75 E8        30.24S
BROKEN BOW     CLOUDY    44  38  79 SE6       30.23R
6HR MIN TEMP:  44; 6HR MAX TEMP:  47; 6HR PCP: TRACE;

O`NEILL        CLOUDY    48  36  62 E5        30.25S
ORD            CLOUDY    46  38  73 NE6       30.23S
6HR MIN TEMP:  45; 6HR MAX TEMP:  47; 6HR PCP: TRACE;

THEDFORD       CLOUDY    45  37  72 E12       30.24R
$$

NEZ041-046>049-061>064-073>077-083>087-220100-
SOUTH CENTRAL NEBRASKA

CITY           SKY/WX    TMP DP  RH WIND       PRES   REMARKS
GRAND ISLAND   CLOUDY    45  41  86 N6        30.23S
6HR MIN TEMP:  44; 6HR MAX TEMP:  45; 6HR PCP:  0.02;

AURORA         CLOUDY    44  41  88 N5        30.22S
HASTINGS       CLOUDY    44  42  93 NE6       30.22S
6HR MIN TEMP:  43; 6HR MAX TEMP:  44; 6HR PCP:  0.01;

HEBRON         CLOUDY    47  41  82 E6        30.22S
HOLDREGE       CLOUDY    42  42  99 NE6       30.22S
KEARNEY        CLOUDY    43  40  89 E9        30.23S
YORK             N/A     46  39  76 E7        30.23R
$$

NEZ011>018-030>034-042>045-220100-
NORTHEAST NEBRASKA

CITY           SKY/WX    TMP DP  RH WIND       PRES   REMARKS
NORFOLK        CLOUDY    49  36  61 NE3       30.23R
6HR MIN TEMP:  49; 6HR MAX TEMP:  52;

ALBION         CLOUDY    48  36  63 N3        30.25R
BLAIR          CLOUDY    52  34  50 NE8       30.24S
COLUMBUS       CLOUDY    49  32  52 E3        30.24S
FREMONT        CLOUDY    53  30  41 E6        30.24S
TEKAMAH        CLOUDY    53  33  46 SE13      30.25S
6HR MIN TEMP:  53; 6HR MAX TEMP:  56;

WAYNE          CLOUDY    53  32  45 SE5       30.25R
$$

NEZ050>053-065>068-078-088>093-220100-
SOUTHEAST NEBRASKA

CITY           SKY/WX    TMP DP  RH WIND       PRES   REMARKS
LINCOLN        CLOUDY    50  37  61 E10       30.23R
6HR MIN TEMP:  49; 6HR MAX TEMP:  52; 6HR PCP:  0.01;

OMAHA EPPLEY   CLOUDY    54  34  46 N9        30.24R
6HR MIN TEMP:  54; 6HR MAX TEMP:  55; 6HR PCP: TRACE;

BEATRICE       CLOUDY    49  42  76 CALM      30.20F
FALLS CITY     CLOUDY    52  40  63 N6        30.17S
6HR MIN TEMP:  46; 6HR MAX TEMP:  54; 6HR PCP:  0.03;

NEBRASKA CITY  PTSUNNY   55  32  41 NE13      30.21R
$$

NEZ044-045-051>053-067-220100-
OMAHA AREA

CITY           SKY/WX    TMP DP  RH WIND       PRES   REMARKS
OMAHA EPPLEY   CLOUDY    54  34  46 N9        30.24R
6HR MIN TEMP:  54; 6HR MAX TEMP:  55; 6HR PCP: TRACE;

BLAIR          CLOUDY    52  34  50 NE8       30.24S
FREMONT        CLOUDY    53  30  41 E6        30.24S
MILLARD        CLOUDY    55  35  46 NE3       30.24S
OFFUTT AFB     CLOUDY    53  35  50 N7        30.22S
WAHOO          CLOUDY    51  28  41 NE6       30.23S
$$



USA.gov is the U.S. government's official web portal to all federal, state and local government web resources and services.